Time,TemperatureF,DewpointF,PressureIn,WindDirection,WindDirectionDegrees,WindSpeedMPH,WindSpeedGustMPH,Humidity,HourlyPrecipIn,Conditions,Clouds,dailyrainin,SoftwareType,DateUTC
2013-06-10 00:01:00,68.9,66.5,29.92,NW,312,0.0,-999.0,92,0.00,,,0.00,Wunderground v.1.15,2013-06-10 04:01:00,
2013-06-10 00:02:00,68.9,66.5,29.91,NW,312,0.0,-999.0,92,0.00,,,0.00,Wunderground v.1.15,2013-06-10 04:02:00,
2013-06-10 00:05:00,68.9,66.5,29.91,NW,312,0.0,-999.0,92,0.00,,,0.00,Wunderground v.1.15,2013-06-10 04:05:00,
2013-06-10 00:08:00,68.9,66.5,29.91,NW,312,0.0,-999.0,92,0.00,,,0.00,Wunderground v.1.15,2013-06-10 04:08:00,
2013-06-10 00:11:00,68.9,66.5,29.92,NW,312,0.0,-999.0,92,0.00,,,0.00,Wunderground v.1.15,2013-06-10 04:11:00,
2013-06-10 00:16:00,69.0,66.6,29.91,NW,312,0.0,-999.0,92,0.00,,,0.00,Wunderground v.1.15,2013-06-10 04:16:00,
2013-06-10 00:22:00,68.8,66.4,29.91,NW,311,0.0,-999.0,92,0.00,,,0.00,Wunderground v.1.15,2013-06-10 04:22:00,
2013-06-10 00:28:00,68.6,66.2,29.91,WNW,300,0.0,-999.0,92,0.00,,,0.00,Wunderground v.1.15,2013-06-10 04:28:00,
2013-06-10 00:33:00,68.3,65.9,29.91,WNW,290,1.0,-999.0,92,0.00,,,0.00,Wunderground v.1.15,2013-06-10 04:33:00,
2013-06-10 00:39:00,68.2,65.8,29.91,WSW,242,1.0,-999.0,92,0.00,,,0.00,Wunderground v.1.15,2013-06-10 04:39:00,
2013-06-10 00:44:00,68.2,65.8,29.91,WSW,242,1.0,-999.0,92,0.00,,,0.00,Wunderground v.1.15,2013-06-10 04:44:00,
2013-06-10 00:50:00,68.2,65.8,29.90,WSW,242,0.0,-999.0,92,0.00,,,0.00,Wunderground v.1.15,2013-06-10 04:50:00,
2013-06-10 00:56:00,68.1,65.7,29.90,WSW,242,0.0,-999.0,92,0.00,,,0.00,Wunderground v.1.15,2013-06-10 04:56:00,
2013-06-10 01:02:00,68.0,65.6,29.89,WSW,242,0.0,-999.0,92,0.00,,,0.00,Wunderground v.1.15,2013-06-10 05:02:00,
2013-06-10 01:07:00,67.9,65.5,29.89,WSW,242,0.0,-999.0,92,0.00,,,0.00,Wunderground v.1.15,2013-06-10 05:07:00,
2013-06-10 01:12:00,67.8,65.4,29.88,WSW,242,0.0,-999.0,92,0.00,,,0.00,Wunderground v.1.15,2013-06-10 05:12:00,
2013-06-10 01:18:00,67.8,65.4,29.88,WSW,242,0.0,-999.0,92,0.00,,,0.00,Wunderground v.1.15,2013-06-10 05:18:00,
2013-06-10 01:24:00,67.7,65.3,29.89,WSW,242,0.0,-999.0,92,0.00,,,0.00,Wunderground v.1.15,2013-06-10 05:24:00,
2013-06-10 01:30:00,67.6,65.2,29.88,WSW,242,0.0,-999.0,92,0.00,,,0.00,Wunderground v.1.15,2013-06-10 05:30:00,
2013-06-10 01:36:00,67.7,65.3,29.88,South,182,1.0,-999.0,92,0.00,,,0.00,Wunderground v.1.15,2013-06-10 05:36:00,
2013-06-10 01:41:00,67.8,65.4,29.88,South,180,1.0,-999.0,92,0.00,,,0.00,Wunderground v.1.15,2013-06-10 05:41:00,
2013-06-10 01:47:00,67.8,65.4,29.88,South,180,1.0,-999.0,92,0.00,,,0.00,Wunderground v.1.15,2013-06-10 05:47:00,
2013-06-10 01:53:00,67.8,65.4,29.87,SSE,159,1.0,-999.0,92,0.00,,,0.00,Wunderground v.1.15,2013-06-10 05:53:00,
2013-06-10 01:59:00,67.7,65.3,29.87,SSE,158,2.0,-999.0,92,0.00,,,0.00,Wunderground v.1.15,2013-06-10 05:59:00,
2013-06-10 02:05:00,67.7,65.3,29.87,SSE,161,3.0,-999.0,92,0.00,,,0.00,Wunderground v.1.15,2013-06-10 06:05:00,
2013-06-10 02:11:00,67.7,65.3,29.86,SSE,164,3.0,-999.0,92,0.00,,,0.00,Wunderground v.1.15,2013-06-10 06:11:00,
2013-06-10 02:16:00,67.7,65.3,29.86,SSE,164,3.0,-999.0,92,0.00,,,0.00,Wunderground v.1.15,2013-06-10 06:16:00,
2013-06-10 02:22:00,67.7,65.3,29.86,SSE,164,3.0,-999.0,92,0.00,,,0.00,Wunderground v.1.15,2013-06-10 06:22:00,
2013-06-10 02:28:00,67.6,65.2,29.85,SSE,164,2.0,-999.0,92,0.00,,,0.00,Wunderground v.1.15,2013-06-10 06:28:00,
2013-06-10 02:34:00,67.6,65.2,29.85,SSE,164,2.0,-999.0,92,0.00,,,0.00,Wunderground v.1.15,2013-06-10 06:34:00,
2013-06-10 02:40:00,67.5,65.1,29.85,SSE,164,2.0,-999.0,92,0.00,,,0.00,Wunderground v.1.15,2013-06-10 06:40:00,
2013-06-10 02:45:00,67.5,65.1,29.85,SSE,164,2.0,-999.0,92,0.00,,,0.00,Wunderground v.1.15,2013-06-10 06:45:00,
2013-06-10 02:50:00,67.4,65.0,29.85,SSE,164,1.0,-999.0,92,0.00,,,0.00,Wunderground v.1.15,2013-06-10 06:50:00,
2013-06-10 02:56:00,67.3,65.2,29.85,SSE,164,0.0,-999.0,93,0.00,,,0.00,Wunderground v.1.15,2013-06-10 06:56:00,
2013-06-10 03:02:00,67.3,65.2,29.84,SSE,164,0.0,-999.0,93,0.00,,,0.00,Wunderground v.1.15,2013-06-10 07:02:00,
2013-06-10 03:08:00,67.2,65.1,29.84,SSE,164,0.0,-999.0,93,0.00,,,0.00,Wunderground v.1.15,2013-06-10 07:08:00,
2013-06-10 03:14:00,67.2,65.1,29.84,SSE,164,2.0,-999.0,93,0.00,,,0.00,Wunderground v.1.15,2013-06-10 07:14:00,
2013-06-10 03:19:00,67.1,65.0,29.84,SSE,164,2.0,-999.0,93,0.00,,,0.00,Wunderground v.1.15,2013-06-10 07:19:00,
2013-06-10 03:25:00,67.1,64.7,29.83,SSE,164,2.0,-999.0,92,0.00,,,0.00,Wunderground v.1.15,2013-06-10 07:25:00,
2013-06-10 03:31:00,67.1,64.7,29.83,SSE,164,2.0,-999.0,92,0.00,,,0.00,Wunderground v.1.15,2013-06-10 07:31:00,
2013-06-10 03:37:00,67.0,64.6,29.83,SSE,164,1.0,-999.0,92,0.00,,,0.00,Wunderground v.1.15,2013-06-10 07:37:00,
2013-06-10 03:43:00,66.9,64.5,29.84,SSE,164,0.0,-999.0,92,0.00,,,0.00,Wunderground v.1.15,2013-06-10 07:43:00,
2013-06-10 03:49:00,66.9,64.8,29.83,SSE,164,0.0,-999.0,93,0.00,,,0.00,Wunderground v.1.15,2013-06-10 07:49:00,
2013-06-10 03:54:00,66.8,64.4,29.83,SSE,164,0.0,-999.0,92,0.00,,,0.00,Wunderground v.1.15,2013-06-10 07:54:00,
2013-06-10 04:00:00,66.9,64.8,29.83,SSE,164,0.0,-999.0,93,0.00,,,0.00,Wunderground v.1.15,2013-06-10 08:00:00,
2013-06-10 04:06:00,66.8,64.7,29.83,SSE,164,0.0,-999.0,93,0.00,,,0.00,Wunderground v.1.15,2013-06-10 08:06:00,
2013-06-10 04:12:00,66.8,64.7,29.83,SSE,164,0.0,-999.0,93,0.00,,,0.00,Wunderground v.1.15,2013-06-10 08:12:00,
2013-06-10 04:18:00,66.7,64.6,29.83,SSE,164,0.0,-999.0,93,0.00,,,0.00,Wunderground v.1.15,2013-06-10 08:18:00,
2013-06-10 04:24:00,66.7,64.6,29.83,SSE,164,0.0,-999.0,93,0.00,,,0.00,Wunderground v.1.15,2013-06-10 08:24:00,
2013-06-10 04:29:00,66.7,64.6,29.82,SSE,164,0.0,-999.0,93,0.00,,,0.00,Wunderground v.1.15,2013-06-10 08:29:00,
2013-06-10 04:35:00,66.7,64.6,29.82,SSE,164,0.0,-999.0,93,0.00,,,0.00,Wunderground v.1.15,2013-06-10 08:35:00,
2013-06-10 04:41:00,66.6,64.5,29.82,SSE,164,0.0,-999.0,93,0.00,,,0.00,Wunderground v.1.15,2013-06-10 08:41:00,
2013-06-10 04:47:00,66.6,64.5,29.82,SSE,164,0.0,-999.0,93,0.00,,,0.00,Wunderground v.1.15,2013-06-10 08:47:00,
2013-06-10 04:53:00,66.6,64.5,29.82,SSE,164,0.0,-999.0,93,0.00,,,0.00,Wunderground v.1.15,2013-06-10 08:53:00,
2013-06-10 04:58:00,66.6,64.5,29.82,SSE,164,0.0,-999.0,93,0.00,,,0.00,Wunderground v.1.15,2013-06-10 08:58:00,
2013-06-10 05:04:00,66.6,64.5,29.82,SSE,164,0.0,-999.0,93,0.00,,,0.00,Wunderground v.1.15,2013-06-10 09:04:00,
2013-06-10 05:10:00,66.6,64.5,29.82,SSE,164,0.0,-999.0,93,0.00,,,0.00,Wunderground v.1.15,2013-06-10 09:10:00,
2013-06-10 05:16:00,66.5,64.4,29.82,SSE,164,0.0,-999.0,93,0.00,,,0.00,Wunderground v.1.15,2013-06-10 09:16:00,
2013-06-10 05:22:00,66.6,64.5,29.81,SSE,164,0.0,-999.0,93,0.00,,,0.00,Wunderground v.1.15,2013-06-10 09:22:00,
2013-06-10 05:28:00,66.6,64.5,29.81,SSE,164,0.0,-999.0,93,0.00,,,0.00,Wunderground v.1.15,2013-06-10 09:28:00,
2013-06-10 05:34:00,66.6,64.5,29.81,SSE,164,0.0,-999.0,93,0.00,,,0.00,Wunderground v.1.15,2013-06-10 09:34:00,
2013-06-10 05:40:00,66.5,64.4,29.81,SSE,164,0.0,-999.0,93,0.00,,,0.00,Wunderground v.1.15,2013-06-10 09:40:00,
2013-06-10 05:45:00,66.5,64.4,29.81,SSE,164,0.0,-999.0,93,0.00,,,0.00,Wunderground v.1.15,2013-06-10 09:45:00,
2013-06-10 05:51:00,66.5,64.4,29.81,SSE,164,0.0,-999.0,93,0.00,,,0.00,Wunderground v.1.15,2013-06-10 09:51:00,
2013-06-10 05:57:00,66.5,64.4,29.81,SSE,164,0.0,-999.0,93,0.00,,,0.00,Wunderground v.1.15,2013-06-10 09:57:00,
2013-06-10 06:03:00,66.5,64.4,29.80,SSE,164,0.0,-999.0,93,0.00,,,0.00,Wunderground v.1.15,2013-06-10 10:03:00,
2013-06-10 06:09:00,66.6,64.5,29.80,SSE,164,0.0,-999.0,93,0.00,,,0.00,Wunderground v.1.15,2013-06-10 10:09:00,
2013-06-10 06:15:00,66.6,64.5,29.80,SSE,164,0.0,-999.0,93,0.00,,,0.00,Wunderground v.1.15,2013-06-10 10:15:00,
2013-06-10 06:20:00,66.7,64.6,29.80,SSE,164,0.0,-999.0,93,0.00,,,0.00,Wunderground v.1.15,2013-06-10 10:20:00,
2013-06-10 06:26:00,66.8,64.7,29.80,SSE,164,0.0,-999.0,93,0.00,,,0.00,Wunderground v.1.15,2013-06-10 10:26:00,
2013-06-10 06:32:00,66.8,64.7,29.80,SSE,164,0.0,-999.0,93,0.00,,,0.00,Wunderground v.1.15,2013-06-10 10:32:00,
2013-06-10 06:38:00,66.8,64.7,29.80,SSE,164,0.0,-999.0,93,0.00,,,0.00,Wunderground v.1.15,2013-06-10 10:38:00,
2013-06-10 06:44:00,66.8,64.7,29.80,SSE,164,0.0,-999.0,93,0.00,,,0.00,Wunderground v.1.15,2013-06-10 10:44:00,
2013-06-10 06:50:00,66.8,64.7,29.80,SSE,164,0.0,-999.0,93,0.00,,,0.00,Wunderground v.1.15,2013-06-10 10:50:00,
2013-06-10 06:56:00,66.9,64.8,29.79,SSE,164,0.0,-999.0,93,0.00,,,0.00,Wunderground v.1.15,2013-06-10 10:56:00,
2013-06-10 07:02:00,67.0,64.9,29.79,SSE,164,1.0,-999.0,93,0.00,,,0.00,Wunderground v.1.15,2013-06-10 11:02:00,
2013-06-10 07:08:00,67.0,64.9,29.79,SSE,164,0.0,-999.0,93,0.00,,,0.00,Wunderground v.1.15,2013-06-10 11:08:00,
2013-06-10 07:13:00,67.1,65.0,29.79,SSE,164,0.0,-999.0,93,0.00,,,0.00,Wunderground v.1.15,2013-06-10 11:13:00,
2013-06-10 07:19:00,67.1,65.0,29.78,SSE,164,0.0,-999.0,93,0.00,,,0.00,Wunderground v.1.15,2013-06-10 11:19:00,
2013-06-10 07:25:00,67.2,65.1,29.78,SSE,164,0.0,-999.0,93,0.00,,,0.00,Wunderground v.1.15,2013-06-10 11:25:00,
2013-06-10 07:31:00,67.2,65.1,29.78,SSE,164,1.0,-999.0,93,0.00,,,0.00,Wunderground v.1.15,2013-06-10 11:31:00,
2013-06-10 07:37:00,67.3,65.2,29.78,SSE,164,0.0,-999.0,93,0.00,,,0.00,Wunderground v.1.15,2013-06-10 11:37:00,
2013-06-10 07:43:00,67.4,65.3,29.78,SSE,164,1.0,-999.0,93,0.00,,,0.00,Wunderground v.1.15,2013-06-10 11:43:00,
2013-06-10 07:49:00,67.5,65.4,29.78,SSE,164,1.0,-999.0,93,0.00,,,0.00,Wunderground v.1.15,2013-06-10 11:49:00,
2013-06-10 07:55:00,67.7,65.6,29.78,South,178,2.0,-999.0,93,0.00,,,0.00,Wunderground v.1.15,2013-06-10 11:55:00,
2013-06-10 08:01:00,67.7,65.6,29.78,SSE,161,4.0,-999.0,93,0.00,,,0.00,Wunderground v.1.15,2013-06-10 12:01:00,
2013-06-10 08:07:00,67.9,65.8,29.77,SSE,160,4.0,-999.0,93,0.00,,,0.00,Wunderground v.1.15,2013-06-10 12:07:00,
2013-06-10 08:13:00,68.2,66.1,29.77,SSE,159,3.0,-999.0,93,0.00,,,0.00,Wunderground v.1.15,2013-06-10 12:13:00,
2013-06-10 08:18:00,68.2,66.1,29.77,SSE,159,4.0,-999.0,93,0.00,,,0.00,Wunderground v.1.15,2013-06-10 12:18:00,
2013-06-10 08:24:00,68.3,66.2,29.77,SSE,159,4.0,-999.0,93,0.00,,,0.00,Wunderground v.1.15,2013-06-10 12:24:00,
2013-06-10 08:29:00,68.4,66.3,29.77,SSE,159,4.0,-999.0,93,0.00,,,0.00,Wunderground v.1.15,2013-06-10 12:29:00,
2013-06-10 08:35:00,68.4,66.3,29.77,SSE,165,4.0,-999.0,93,0.00,,,0.00,Wunderground v.1.15,2013-06-10 12:35:00,
2013-06-10 08:41:00,68.5,66.4,29.77,South,178,5.0,-999.0,93,0.00,,,0.00,Wunderground v.1.15,2013-06-10 12:41:00,
2013-06-10 08:46:00,68.8,66.7,29.77,SSE,167,4.0,-999.0,93,0.00,,,0.00,Wunderground v.1.15,2013-06-10 12:46:00,
2013-06-10 08:52:00,68.9,66.8,29.77,SSE,165,5.0,-999.0,93,0.00,,,0.00,Wunderground v.1.15,2013-06-10 12:52:00,
2013-06-10 08:58:00,68.9,66.8,29.77,South,178,5.0,-999.0,93,0.00,,,0.00,Wunderground v.1.15,2013-06-10 12:58:00,
2013-06-10 09:03:00,69.0,66.9,29.77,South,171,5.0,-999.0,93,0.00,,,0.00,Wunderground v.1.15,2013-06-10 13:03:00,
2013-06-10 09:08:00,69.1,67.0,29.77,South,175,5.0,-999.0,93,0.00,,,0.00,Wunderground v.1.15,2013-06-10 13:08:00,
2013-06-10 09:14:00,69.3,67.2,29.77,South,178,5.0,-999.0,93,0.00,,,0.00,Wunderground v.1.15,2013-06-10 13:14:00,
2013-06-10 09:20:00,69.3,67.2,29.76,South,178,5.0,-999.0,93,0.00,,,0.00,Wunderground v.1.15,2013-06-10 13:20:00,
2013-06-10 09:26:00,69.3,67.2,29.76,South,182,4.0,-999.0,93,0.00,,,0.00,Wunderground v.1.15,2013-06-10 13:26:00,
2013-06-10 09:32:00,69.3,67.2,29.76,South,186,3.0,-999.0,93,0.00,,,0.00,Wunderground v.1.15,2013-06-10 13:32:00,
2013-06-10 09:38:00,69.3,67.2,29.76,South,175,4.0,-999.0,93,0.00,,,0.00,Wunderground v.1.15,2013-06-10 13:38:00,
2013-06-10 09:44:00,69.5,67.4,29.76,South,184,5.0,-999.0,93,0.00,,,0.00,Wunderground v.1.15,2013-06-10 13:44:00,
2013-06-10 09:50:00,69.5,67.4,29.76,South,184,4.0,-999.0,93,0.00,,,0.00,Wunderground v.1.15,2013-06-10 13:50:00,
2013-06-10 09:55:00,69.7,67.3,29.76,South,184,3.0,-999.0,92,0.00,,,0.00,Wunderground v.1.15,2013-06-10 13:55:00,
2013-06-10 10:01:00,69.6,67.2,29.76,South,185,4.0,-999.0,92,0.00,,,0.00,Wunderground v.1.15,2013-06-10 14:01:00,
2013-06-10 10:07:00,69.8,67.4,29.75,South,187,4.0,-999.0,92,0.00,,,0.00,Wunderground v.1.15,2013-06-10 14:07:00,
2013-06-10 10:13:00,69.7,67.3,29.75,South,184,5.0,-999.0,92,0.00,,,0.00,Wunderground v.1.15,2013-06-10 14:13:00,
2013-06-10 10:18:00,69.8,67.4,29.75,SSW,194,5.0,-999.0,92,0.00,,,0.00,Wunderground v.1.15,2013-06-10 14:18:00,
2013-06-10 10:24:00,70.1,67.7,29.75,South,174,5.0,-999.0,92,0.00,,,0.00,Wunderground v.1.15,2013-06-10 14:24:00,
2013-06-10 10:30:00,70.4,68.0,29.74,South,174,5.0,-999.0,92,0.00,,,0.00,Wunderground v.1.15,2013-06-10 14:30:00,
2013-06-10 10:35:00,70.7,68.3,29.74,SSE,167,5.0,-999.0,92,0.00,,,0.00,Wunderground v.1.15,2013-06-10 14:35:00,
2013-06-10 10:41:00,71.1,68.7,29.74,South,173,5.0,-999.0,92,0.00,,,0.00,Wunderground v.1.15,2013-06-10 14:41:00,
2013-06-10 10:47:00,71.1,68.3,29.73,SSW,207,5.0,-999.0,91,0.00,,,0.00,Wunderground v.1.15,2013-06-10 14:47:00,
2013-06-10 10:53:00,71.2,68.4,29.73,South,184,5.0,-999.0,91,0.00,,,0.00,Wunderground v.1.15,2013-06-10 14:53:00,
2013-06-10 10:58:00,71.1,68.0,29.73,South,188,4.0,-999.0,90,0.00,,,0.00,Wunderground v.1.15,2013-06-10 14:58:00,
2013-06-10 11:04:00,70.9,67.8,29.73,South,175,4.0,-999.0,90,0.00,,,0.00,Wunderground v.1.15,2013-06-10 15:04:00,
2013-06-10 11:10:00,71.0,67.9,29.73,South,179,5.0,-999.0,90,0.00,,,0.00,Wunderground v.1.15,2013-06-10 15:10:00,
2013-06-10 11:15:00,71.2,68.1,29.73,South,180,5.0,-999.0,90,0.00,,,0.00,Wunderground v.1.15,2013-06-10 15:15:00,
2013-06-10 11:21:00,71.5,68.4,29.73,South,177,5.0,-999.0,90,0.00,,,0.00,Wunderground v.1.15,2013-06-10 15:21:00,
2013-06-10 11:27:00,71.6,68.2,29.73,SSW,196,4.0,-999.0,89,0.00,,,0.00,Wunderground v.1.15,2013-06-10 15:27:00,
2013-06-10 11:32:00,71.6,68.2,29.72,South,169,3.0,-999.0,89,0.00,,,0.00,Wunderground v.1.15,2013-06-10 15:32:00,
2013-06-10 11:38:00,71.5,68.1,29.72,South,169,3.0,-999.0,89,0.00,,,0.01,Wunderground v.1.15,2013-06-10 15:38:00,
2013-06-10 11:44:00,71.0,67.6,29.73,South,169,2.0,-999.0,89,0.00,,,0.01,Wunderground v.1.15,2013-06-10 15:44:00,
2013-06-10 11:49:00,70.4,67.6,29.73,South,169,2.0,-999.0,91,1.24,,,0.08,Wunderground v.1.15,2013-06-10 15:49:00,
2013-06-10 11:55:00,69.6,66.9,29.73,South,191,2.0,-999.0,91,0.64,,,0.20,Wunderground v.1.15,2013-06-10 15:55:00,
2013-06-10 12:01:00,69.3,66.9,29.72,SSW,198,4.0,-999.0,92,0.12,,,0.21,Wunderground v.1.15,2013-06-10 16:01:00,
2013-06-10 12:06:00,69.0,66.6,29.71,South,188,4.0,-999.0,92,0.06,,,0.21,Wunderground v.1.15,2013-06-10 16:06:00,
2013-06-10 12:12:00,69.0,66.9,29.71,South,177,4.0,-999.0,93,0.04,,,0.21,Wunderground v.1.15,2013-06-10 16:12:00,
2013-06-10 12:18:00,69.1,67.0,29.70,South,177,2.0,-999.0,93,0.00,,,0.21,Wunderground v.1.15,2013-06-10 16:18:00,
2013-06-10 12:24:00,69.3,67.2,29.70,South,177,1.0,-999.0,93,0.00,,,0.21,Wunderground v.1.15,2013-06-10 16:24:00,
2013-06-10 12:29:00,69.5,67.4,29.71,South,177,0.0,-999.0,93,0.00,,,0.21,Wunderground v.1.15,2013-06-10 16:29:00,
2013-06-10 12:35:00,69.8,67.7,29.71,SSW,195,1.0,-999.0,93,0.00,,,0.21,Wunderground v.1.15,2013-06-10 16:35:00,
2013-06-10 12:41:00,70.2,68.1,29.72,South,190,4.0,-999.0,93,0.00,,,0.21,Wunderground v.1.15,2013-06-10 16:41:00,
2013-06-10 12:47:00,70.3,68.2,29.72,South,185,4.0,-999.0,93,0.00,,,0.21,Wunderground v.1.15,2013-06-10 16:47:00,
2013-06-10 12:53:00,70.7,68.6,29.72,SW,215,4.0,-999.0,93,0.00,,,0.21,Wunderground v.1.15,2013-06-10 16:53:00,
2013-06-10 12:58:00,70.4,68.0,29.72,SSW,193,4.0,-999.0,92,0.00,,,0.21,Wunderground v.1.15,2013-06-10 16:58:00,
2013-06-10 13:04:00,70.6,68.2,29.72,SSW,204,4.0,-999.0,92,0.00,,,0.21,Wunderground v.1.15,2013-06-10 17:04:00,
2013-06-10 13:09:00,70.8,68.0,29.72,SW,217,5.0,-999.0,91,0.00,,,0.21,Wunderground v.1.15,2013-06-10 17:09:00,
2013-06-10 13:15:00,71.2,67.8,29.72,SSW,204,5.0,-999.0,89,0.00,,,0.21,Wunderground v.1.15,2013-06-10 17:15:00,
2013-06-10 13:20:00,71.7,68.6,29.72,SSW,212,5.0,-999.0,90,0.00,,,0.21,Wunderground v.1.15,2013-06-10 17:20:00,
2013-06-10 13:26:00,71.8,68.1,29.72,SSW,207,5.0,-999.0,88,0.00,,,0.21,Wunderground v.1.15,2013-06-10 17:26:00,
2013-06-10 13:32:00,71.9,68.2,29.72,SSW,207,3.0,-999.0,88,0.00,,,0.21,Wunderground v.1.15,2013-06-10 17:32:00,